User: anonymous   Login
Location: Ay?beleni
(36.6500°N, 30.3000°E)
Time: 00:54:21
(UTC+00:00)
Language:

OE (NEXTSAT) - Orbit

View from above orbital plane
View from above orbital plane
View from above satellite
View from above satellite

Ground track
Ground track

The orbit data is extracted from the following two-line orbital elements,

1 30774U 07006C   20188.45123588  .00001196  00000-0  34175-4 0  9990
2 30774  46.0039 333.9130 0005178  17.3242 342.7838 15.43641051743758
Epoch (UTC): 06 July 2020 10:49:46
Eccentricity: 0.0005178
inclination: 46.0039°
perigee height: 432 km
apogee height: 439 km
right ascension of ascending node: 333.9130°
argument of perigee: 17.3242°
revolutions per day: 15.43641051
mean anomaly at epoch: 342.7838°
orbit number at epoch: 74375

The dashed part of the orbit path shows where the satellite is in the earth's shadow,  

DLR